NAVSTAR 22 (USA 66) 1 20959U 90103A 10066.83606221 +.00000008 +00000-0 +10000-3 0 06000 2 20959 055.0097 272.3777 0130790 301.0768 057.6841 02.00573309141199 NAVSTAR 23 (USA 71) 1 21552U 91047A 10067.57742260 +.00000007 +00000-0 +10000-3 0 05967 2 21552 054.4010 210.3596 0058782 331.2271 028.4148 02.00420766136796 NAVSTAR 24 (USA 79) 1 21890U 92009A 10067.54680273 -.00000080 +00000-0 +10000-3 0 06078 2 21890 055.7328 022.1926 0116434 291.2306 067.5231 02.00563265132173 NAVSTAR 26 (USA 83) 1 22014U 92039A 10064.75947697 -.00000099 00000-0 10000-3 0 5255 2 22014 056.7982 331.1859 0191616 060.6745 301.2552 02.00721122122886 NAVSTAR 27 (USA 84) 1 22108U 92058A 10064.25217914 -.00000078 00000-0 10000-3 0 4152 2 22108 056.0105 024.4611 0219156 276.3948 081.1031 02.00564719128057 NAVSTAR 33 (USA 92) 1 22700U 93042A 10067.75812113 -.00000073 +00000-0 +10000-3 0 07613 2 22700 056.1252 025.7344 0204912 087.9394 274.3962 02.00572064122281 NAVSTAR 34 (USA 94) 1 22779U 93054A 10063.36958813 -.00000021 00000-0 10000-3 0 3128 2 22779 054.3998 081.9141 0099575 079.4002 281.7653 02.00568072120957 NAVSTAR 35 (USA 96) 1 22877U 93068A 10063.41226486 .00000026 00000-0 10000-3 0 875 2 22877 053.8248 207.7644 0090322 034.8290 325.7131 02.00566730119844 NAVSTAR 36 (USA 100) 1 23027U 94016A 10066.61006678 -.00000040 +00000-0 +10000-3 0 00878 2 23027 053.5287 144.6416 0062125 294.0390 065.3541 02.00564057117210 NAVSTAR 37 (USA 117) 1 23833U 96019A 10066.12524847 -.00000037 +00000-0 +10000-3 0 02752 2 23833 053.1141 140.6607 0127406 057.3150 303.9544 02.00560781102180 NAVSTAR 38 (USA 126) 1 23953U 96041A 10064.02846767 -.00000003 00000-0 10000-3 0 7540 2 23953 054.6887 268.8945 0090942 036.2991 324.3103 02.00588434 99938 NAVSTAR 39 (USA 128) 1 24320U 96056A 10063.40456134 -.00000018 +00000-0 +10000-3 0 04959 2 24320 054.7245 085.1042 0117260 084.4865 276.8990 02.00551320098581 NAVSTAR 43 (USA 132) 1 24876U 97035A 10067.48986526 -.00000100 +00000-0 +10000-3 0 02486 2 24876 056.9215 331.2569 0039264 094.4298 266.0543 02.00574549092537 NAVSTAR 44 (USA 134) 1 25030U 97067A 10066.12599868 -.00000063 +00000-0 +10000-3 0 01592 2 25030 056.8433 031.4254 0109824 178.9525 181.0723 02.00558840090408 NAVSTAR 46 (USA 145) 1 25933U 99055A 10066.76713621 -.00000011 +00000-0 +10000-3 0 07014 2 25933 050.9147 194.3089 0103723 045.1061 315.7005 02.00556492076330 NAVSTAR 47 (USA 150) 1 26360U 00025A 10067.36794945 +.00000016 +00000-0 +10000-3 0 07949 2 26360 053.7555 265.7356 0041194 073.3859 287.0863 02.00564384072046 NAVSTAR 48 (USA 151) 1 26407U 00040A 10067.20211128 -.00000005 +00000-0 +10000-3 0 07419 2 26407 055.5444 089.3881 0160614 247.3725 110.9675 02.00564762070719 NAVSTAR 49 (USA 154) 1 26605U 00071A 10067.80020916 -.00000098 +00000-0 +10000-3 0 07481 2 26605 056.5415 330.0245 0051478 241.4150 118.0976 02.00559672068323 NAVSTAR 50 (USA 156) 1 26690U 01004A 10067.66719596 +.00000013 +00000-0 +10000-3 0 06323 2 26690 053.7669 268.8096 0111071 226.2952 132.7970 02.00563590066730 NAVSTAR 51 (USA 166) 1 27663U 03005A 10067.02166129 -.00000007 +00000-0 +10000-3 0 00097 2 27663 055.6463 088.9472 0058276 342.5056 017.3428 02.00558455052079 NAVSTAR 52 (USA 168) 1 27704U 03010A 10067.59064039 +.00000002 +00000-0 +10000-3 0 09181 2 27704 053.4466 208.2377 0161606 216.6570 142.1958 02.00559236050878 NAVSTAR 53 (USA 175) 1 28129U 03058A 10064.71947753 -.00000002 00000-0 10000-3 0 5119 2 28129 053.6391 269.2130 0058545 236.5936 122.8759 02.00564857 45522 NAVSTAR 54 (USA 177) 1 28190U 04009A 10066.16470529 -.00000035 +00000-0 +10000-3 0 04628 2 28190 054.8733 151.9019 0062145 348.2172 011.6698 02.00560244043723 NAVSTAR 55 (USA 178) 1 28361U 04023A 10066.95308491 -.00000099 +00000-0 +10000-3 0 02874 2 28361 055.4965 327.9077 0063592 175.2877 184.9657 02.00558270041827 NAVSTAR 56 (USA 180) 1 28474U 04045A 10064.45889102 .00000026 00000-0 10000-3 0 1686 2 28474 053.8711 206.6888 0093690 171.2554 188.8718 02.00550917 39138 NAVSTAR 57 (USA 183) 1 28874U 05038A 10067.30343205 -.00000042 +00000-0 +10000-3 0 04344 2 28874 055.0107 148.6920 0052281 214.7647 144.9256 02.00575797032613 NAVSTAR 58 (USA 190) 1 29486U 06042A 10066.90865226 -.00000070 +00000-0 +10000-3 0 07554 2 29486 055.9304 027.5549 0077651 297.1741 061.9927 02.00568505025301 NAVSTAR 59 (USA 192) 1 29601U 06052A 10067.35572789 -.00000003 +00000-0 +10000-3 0 08044 2 29601 055.5724 087.9401 0035280 325.2309 034.5884 02.00555241024225 NAVSTAR 60 (USA 196) 1 32260U 07047A 10062.16943023 -.00000087 00000-0 00000+0 0 5315 2 32260 054.6884 326.7301 0024869 339.2377 020.7034 02.00557635 17518 NAVSTAR 61 (USA 199) 1 32384U 07062A 10064.48788990 -.00000015 00000-0 10000-3 0 5592 2 32384 055.0251 149.2752 0031918 283.8798 075.8212 02.00549994 16281 NAVSTAR 62 (USA 201) 1 32711U 08012A 10067.07700294 -.00000071 +00000-0 +10000-3 0 04233 2 32711 055.6240 027.5941 0032491 180.5998 179.3891 02.00557992014546